LZB8528 HESH-LBSF

Flight info

Callsign LZB8528
Flight time 2h 59m
Altitude 34000
Route KAPIT L677 CVO L617 NOZ L551 ANTAR/N0454F360 UN133 PEREN UL863 EVIVI Y94 VANET
Aircraft A320/M-SDE3FGHIRWY/LB1

Departure

Time 2026-04-28 12:30
Airport Sharm El Sheikh International Airport (HESH)

Arrival

Time 2026-04-28 15:29
Airport Sofia Airport (LBSF)
Time Latitude Longitude Altitude Speed Heading
2026-04-28 12:06 27.97834 34.38741 195 ft 0 kts 132°
2026-04-28 12:07 27.97835 34.38741 196 ft 0 kts 132°
2026-04-28 12:07 27.97836 34.38740 196 ft 0 kts 132°
2026-04-28 12:08 27.97835 34.38740 195 ft 0 kts 132°
2026-04-28 12:09 27.97826 34.38734 195 ft 0 kts 132°
2026-04-28 12:11 27.97828 34.38732 195 ft 0 kts 132°
2026-04-28 12:11 27.97824 34.38736 196 ft 3 kts 132°
2026-04-28 12:11 27.97825 34.38735 195 ft 0 kts 132°
2026-04-28 12:11 27.97824 34.38735 195 ft 0 kts 132°
2026-04-28 12:22 27.97829 34.38730 195 ft 2 kts 139°
2026-04-28 12:22 27.97841 34.38721 196 ft 2 kts 157°
2026-04-28 12:23 27.97857 34.38716 196 ft 2 kts 173°
2026-04-28 12:23 27.97886 34.38724 197 ft 1 kts 179°
2026-04-28 12:23 27.97897 34.38729 198 ft 2 kts 222°
2026-04-28 12:23 27.97900 34.38733 198 ft 0 kts 226°
2026-04-28 12:25 27.97895 34.38727 198 ft 1 kts 225°
2026-04-28 12:25 27.97876 34.38708 197 ft 6 kts 221°
2026-04-28 12:26 27.97799 34.38628 197 ft 29 kts 220°
2026-04-28 12:26 27.97697 34.38521 197 ft 16 kts 225°
2026-04-28 12:26 27.97608 34.38426 197 ft 19 kts 224°
2026-04-28 12:26 27.97518 34.38446 193 ft 16 kts 126°
2026-04-28 12:27 27.97443 34.38522 188 ft 8 kts 144°
2026-04-28 12:27 27.97399 34.38531 187 ft 5 kts 221°
2026-04-28 12:27 27.97349 34.38480 188 ft 16 kts 223°
2026-04-28 12:27 27.97251 34.38376 187 ft 16 kts 223°
2026-04-28 12:28 27.97153 34.38276 186 ft 13 kts 223°
2026-04-28 12:28 27.97086 34.38206 186 ft 12 kts 226°
2026-04-28 12:28 27.97002 34.38145 185 ft 9 kts 181°
2026-04-28 12:28 27.96932 34.38181 180 ft 11 kts 132°
2026-04-28 12:29 27.97059 34.38488 174 ft 72 kts 41°
2026-04-28 12:29 27.97615 34.39066 180 ft 140 kts 39°
2026-04-28 12:29 27.98427 34.39906 450 ft 170 kts 38°
2026-04-28 12:30 27.99353 34.40726 1231 ft 170 kts 27°
2026-04-28 12:30 28.00389 34.41261 2071 ft 166 kts 18°
2026-04-28 12:30 28.01513 34.41772 2635 ft 182 kts 21°
2026-04-28 12:30 28.02697 34.42413 3208 ft 199 kts 24°
2026-04-28 12:31 28.03982 34.43147 3788 ft 216 kts 25°
2026-04-28 12:31 28.05404 34.43969 4244 ft 243 kts 26°
2026-04-28 12:31 28.06918 34.44848 5130 ft 249 kts 26°
2026-04-28 12:31 28.08491 34.45760 5865 ft 264 kts 26°
2026-04-28 12:32 28.10150 34.46721 6756 ft 272 kts 26°
2026-04-28 12:32 28.11842 34.47673 7753 ft 275 kts 21°
2026-04-28 12:32 28.13655 34.48275 8688 ft 278 kts
2026-04-28 12:32 28.15600 34.48434 9635 ft 282 kts
2026-04-28 12:33 28.17557 34.48465 10472 ft 289 kts 359°
2026-04-28 12:33 28.19619 34.48474 11036 ft 305 kts 356°
2026-04-28 12:33 28.21762 34.47931 11476 ft 323 kts 333°
2026-04-28 12:33 28.23576 34.46404 11980 ft 338 kts 310°
2026-04-28 12:34 28.24800 34.44112 12714 ft 346 kts 295°
2026-04-28 12:34 28.25831 34.41628 13592 ft 349 kts 295°
2026-04-28 12:34 28.26881 34.39142 14443 ft 352 kts 295°
2026-04-28 12:34 28.27935 34.36659 15281 ft 355 kts 295°
2026-04-28 12:35 28.29002 34.34146 16091 ft 358 kts 295°
2026-04-28 12:35 28.30089 34.31583 16887 ft 361 kts 294°
2026-04-28 12:35 28.31174 34.29027 17689 ft 363 kts 294°
2026-04-28 12:35 28.32263 34.26454 18463 ft 366 kts 294°
2026-04-28 12:36 28.33369 34.23840 19214 ft 369 kts 294°
2026-04-28 12:36 28.34472 34.21228 19940 ft 372 kts 294°
2026-04-28 12:36 28.35590 34.18582 20623 ft 375 kts 293°
2026-04-28 12:36 28.36719 34.15909 21314 ft 378 kts 293°
2026-04-28 12:37 28.37861 34.13201 21966 ft 381 kts 293°
2026-04-28 12:37 28.39010 34.10477 22603 ft 385 kts 293°
2026-04-28 12:37 28.40155 34.07762 23228 ft 387 kts 292°
2026-04-28 12:37 28.41330 34.04971 23647 ft 395 kts 293°
2026-04-28 12:38 28.42529 34.02131 24080 ft 401 kts 293°
2026-04-28 12:38 28.43735 33.99273 24600 ft 405 kts 293°
2026-04-28 12:38 28.44958 33.96376 25121 ft 408 kts 293°
2026-04-28 12:38 28.46176 33.93483 25639 ft 410 kts 293°
2026-04-28 12:39 28.47407 33.90552 26105 ft 413 kts 293°
2026-04-28 12:39 28.48646 33.87600 26541 ft 416 kts 293°
2026-04-28 12:39 28.49896 33.84619 27015 ft 418 kts 293°
2026-04-28 12:39 28.51136 33.81664 27447 ft 420 kts 293°
2026-04-28 12:40 28.52386 33.78682 27947 ft 420 kts 293°
2026-04-28 12:40 28.53632 33.75700 28523 ft 418 kts 293°
2026-04-28 12:40 28.54878 33.72720 29077 ft 417 kts 293°
2026-04-28 12:40 28.56126 33.69734 29602 ft 416 kts 293°
2026-04-28 12:41 28.57357 33.66784 30036 ft 415 kts 293°
2026-04-28 12:41 28.58601 33.63807 30472 ft 414 kts 292°
2026-04-28 12:41 28.59828 33.60865 30855 ft 414 kts 292°
2026-04-28 12:41 28.61095 33.57955 31199 ft 415 kts 294°
2026-04-28 12:42 28.62515 33.55073 31564 ft 415 kts 297°
2026-04-28 12:42 28.64042 33.52311 31955 ft 415 kts 299°
2026-04-28 12:42 28.65685 33.49647 32327 ft 414 kts 302°
2026-04-28 12:42 28.67444 33.47071 32699 ft 413 kts 303°
2026-04-28 12:43 28.69232 33.44533 33005 ft 412 kts 303°
2026-04-28 12:43 28.71034 33.41985 33275 ft 412 kts 303°
2026-04-28 12:43 28.72842 33.39427 33529 ft 412 kts 303°
2026-04-28 12:43 28.74633 33.36897 33787 ft 412 kts 303°
2026-04-28 12:44 28.76427 33.34356 33828 ft 414 kts 302°
2026-04-28 12:44 28.80026 33.29230 33890 ft 414 kts 302°
2026-04-28 12:45 28.83608 33.24134 33918 ft 413 kts 303°
2026-04-28 12:45 28.87225 33.18997 33947 ft 414 kts 303°
2026-04-28 12:46 28.90811 33.13897 33938 ft 414 kts 303°
2026-04-28 12:46 28.94420 33.08763 33938 ft 414 kts 303°
2026-04-28 12:47 28.98004 33.03653 33936 ft 414 kts 303°
2026-04-28 12:47 29.01603 32.98522 33926 ft 414 kts 303°
2026-04-28 12:48 29.05221 32.93357 33908 ft 415 kts 303°
2026-04-28 12:48 29.08815 32.88216 33928 ft 415 kts 303°
2026-04-28 12:49 29.12430 32.83063 33928 ft 414 kts 303°
2026-04-28 12:49 29.16020 32.77950 33974 ft 414 kts 303°
2026-04-28 12:50 29.19607 32.72804 33945 ft 413 kts 303°
2026-04-28 12:50 29.23203 32.67635 33933 ft 414 kts 303°
2026-04-28 12:51 29.26760 32.62511 33933 ft 413 kts 303°
2026-04-28 12:51 29.30348 32.57336 33940 ft 414 kts 303°
2026-04-28 12:52 29.33891 32.52193 33937 ft 414 kts 303°
2026-04-28 12:52 29.37444 32.47016 33947 ft 414 kts 303°
2026-04-28 12:53 29.40994 32.41842 33953 ft 413 kts 303°
2026-04-28 12:53 29.44540 32.36657 33978 ft 413 kts 303°
2026-04-28 12:54 29.48071 32.31476 33995 ft 412 kts 303°
2026-04-28 12:54 29.51592 32.26294 34006 ft 412 kts 303°
2026-04-28 12:55 29.55129 32.21099 34017 ft 412 kts 303°
2026-04-28 12:55 29.58640 32.15940 34000 ft 412 kts 303°
2026-04-28 12:56 29.62158 32.10763 34006 ft 413 kts 303°
2026-04-28 12:56 29.65695 32.05552 34000 ft 413 kts 303°
2026-04-28 12:57 29.69207 32.00373 33991 ft 413 kts 303°
2026-04-28 12:57 29.72725 31.95176 33996 ft 413 kts 303°
2026-04-28 12:58 29.76244 31.89965 33992 ft 413 kts 303°
2026-04-28 12:58 29.79733 31.84747 33984 ft 412 kts 302°
2026-04-28 12:59 29.83133 31.79431 33987 ft 412 kts 302°
2026-04-28 12:59 29.86518 31.74130 33988 ft 411 kts 302°
2026-04-28 13:00 29.89919 31.68814 33946 ft 412 kts 302°
2026-04-28 13:00 29.93313 31.63540 33990 ft 413 kts 302°
2026-04-28 13:01 29.96748 31.58239 33983 ft 412 kts 302°
2026-04-28 13:01 30.00176 31.52937 33992 ft 411 kts 303°
2026-04-28 13:02 30.03576 31.47670 33992 ft 411 kts 303°
2026-04-28 13:02 30.06985 31.42373 33974 ft 410 kts 302°
2026-04-28 13:03 30.10571 31.37188 33977 ft 413 kts 307°
2026-04-28 13:03 30.14413 31.32240 33976 ft 414 kts 307°
2026-04-28 13:04 30.18251 31.27286 33953 ft 414 kts 307°
2026-04-28 13:04 30.22099 31.22309 33959 ft 414 kts 307°
2026-04-28 13:05 30.25933 31.17347 33962 ft 415 kts 307°
2026-04-28 13:05 30.29757 31.12386 33957 ft 414 kts 307°
2026-04-28 13:06 30.33591 31.07406 33959 ft 414 kts 307°
2026-04-28 13:06 30.37432 31.02413 33957 ft 414 kts 307°
2026-04-28 13:07 30.41254 30.97440 33943 ft 415 kts 307°
2026-04-28 13:07 30.45082 30.92447 33955 ft 414 kts 307°
2026-04-28 13:08 30.48918 30.87441 33953 ft 414 kts 307°
2026-04-28 13:08 30.52733 30.82459 33949 ft 414 kts 307°
2026-04-28 13:09 30.56539 30.77480 33952 ft 414 kts 307°
2026-04-28 13:09 30.60338 30.72500 33949 ft 413 kts 307°
2026-04-28 13:10 30.64136 30.67519 33959 ft 412 kts 307°
2026-04-28 13:10 30.67931 30.62537 33951 ft 413 kts 307°
2026-04-28 13:11 30.71740 30.57528 33957 ft 413 kts 307°
2026-04-28 13:11 30.75523 30.52542 33964 ft 413 kts 307°
2026-04-28 13:12 30.79311 30.47546 34000 ft 412 kts 307°
2026-04-28 13:12 30.83094 30.42552 33977 ft 412 kts 307°
2026-04-28 13:13 30.86872 30.37557 33978 ft 412 kts 307°
2026-04-28 13:13 30.90660 30.32532 33976 ft 412 kts 307°
2026-04-28 13:14 30.94430 30.27513 33974 ft 412 kts 307°
2026-04-28 13:14 30.98182 30.22523 33979 ft 411 kts 307°
2026-04-28 13:15 31.01966 30.17490 33991 ft 411 kts 307°
2026-04-28 13:15 31.05747 30.12458 33983 ft 411 kts 307°
2026-04-28 13:16 31.09497 30.07462 34004 ft 411 kts 307°
2026-04-28 13:16 31.13290 30.02499 34001 ft 412 kts 309°
2026-04-28 13:17 31.17476 29.97842 34001 ft 416 kts 315°
2026-04-28 13:17 31.22021 29.93695 34011 ft 417 kts 320°
2026-04-28 13:18 31.26906 29.90097 34009 ft 415 kts 325°
2026-04-28 13:18 31.31996 29.86870 34025 ft 412 kts 326°
2026-04-28 13:19 31.37053 29.83701 34013 ft 412 kts 326°
2026-04-28 13:19 31.42126 29.80522 34011 ft 411 kts 326°
2026-04-28 13:20 31.47154 29.77367 34011 ft 411 kts 326°
2026-04-28 13:20 31.52215 29.74188 34013 ft 411 kts 326°
2026-04-28 13:21 31.57223 29.71038 34018 ft 411 kts 326°
2026-04-28 13:21 31.62270 29.67861 34009 ft 410 kts 326°
2026-04-28 13:22 31.67296 29.64691 34014 ft 410 kts 326°
2026-04-28 13:22 31.72352 29.61501 34004 ft 410 kts 326°
2026-04-28 13:23 31.77371 29.58330 34032 ft 410 kts 326°
2026-04-28 13:23 31.82392 29.55150 34017 ft 410 kts 327°
2026-04-28 13:24 31.87401 29.51977 34000 ft 410 kts 326°
2026-04-28 13:24 31.92431 29.48782 34026 ft 409 kts 326°
2026-04-28 13:25 31.97443 29.45596 34007 ft 409 kts 327°
2026-04-28 13:25 32.02439 29.42424 34014 ft 409 kts 327°
2026-04-28 13:26 32.07458 29.39231 34020 ft 410 kts 327°
2026-04-28 13:26 32.12471 29.36042 34024 ft 409 kts 327°
2026-04-28 13:27 32.17479 29.32842 34025 ft 409 kts 326°
2026-04-28 13:27 32.22477 29.29634 34008 ft 409 kts 326°
2026-04-28 13:28 32.27446 29.26454 34019 ft 408 kts 327°
2026-04-28 13:28 32.32445 29.23252 34015 ft 408 kts 327°
2026-04-28 13:29 32.37418 29.20056 34019 ft 408 kts 327°
2026-04-28 13:29 32.42422 29.16837 34009 ft 408 kts 327°
2026-04-28 13:30 32.47411 29.13625 34020 ft 408 kts 327°
2026-04-28 13:30 32.52373 29.10425 34021 ft 408 kts 327°
2026-04-28 13:31 32.59879 29.05579 34033 ft 409 kts 327°
2026-04-28 13:31 32.64873 29.02349 34033 ft 409 kts 327°
2026-04-28 13:32 32.69881 28.99106 34018 ft 409 kts 327°
2026-04-28 13:32 32.74850 28.95886 34020 ft 410 kts 327°
2026-04-28 13:33 32.79879 28.92619 34021 ft 411 kts 327°
2026-04-28 13:33 32.84902 28.89353 34015 ft 412 kts 328°
2026-04-28 13:34 32.89912 28.86092 34027 ft 412 kts 328°
2026-04-28 13:34 32.94944 28.82809 34010 ft 413 kts 328°
2026-04-28 13:35 32.99975 28.79526 33993 ft 413 kts 328°
2026-04-28 13:35 33.05010 28.76237 33996 ft 413 kts 328°
2026-04-28 13:36 33.10060 28.72933 33994 ft 413 kts 328°
2026-04-28 13:36 33.15091 28.69654 33993 ft 413 kts 328°
2026-04-28 13:37 33.20137 28.66358 33991 ft 414 kts 328°
2026-04-28 13:37 33.25203 28.63034 33991 ft 414 kts 328°
2026-04-28 13:38 33.30228 28.59728 33996 ft 414 kts 328°
2026-04-28 13:38 33.35234 28.56392 34042 ft 413 kts 328°
2026-04-28 13:39 33.40288 28.53066 34005 ft 414 kts 328°
2026-04-28 13:39 33.45310 28.49767 33990 ft 414 kts 328°
2026-04-28 13:40 33.50380 28.46419 34000 ft 414 kts 329°
2026-04-28 13:40 33.55423 28.43079 33995 ft 415 kts 329°
2026-04-28 13:41 33.60487 28.39719 33995 ft 415 kts 329°
2026-04-28 13:41 33.65531 28.36367 33992 ft 415 kts 329°
2026-04-28 13:42 33.70563 28.33003 33996 ft 415 kts 328°
2026-04-28 13:42 33.75623 28.29612 33993 ft 415 kts 328°
2026-04-28 13:43 33.80666 28.26243 33988 ft 415 kts 328°
2026-04-28 13:43 33.85703 28.22852 33994 ft 415 kts 328°
2026-04-28 13:44 33.90718 28.19464 34006 ft 416 kts 328°
2026-04-28 13:44 33.95757 28.16054 33997 ft 416 kts 328°
2026-04-28 13:45 34.00800 28.12639 33988 ft 415 kts 328°
2026-04-28 13:45 34.05899 28.09383 33987 ft 416 kts 332°
2026-04-28 13:46 34.11161 28.06437 33985 ft 417 kts 333°
2026-04-28 13:46 34.16450 28.03487 33983 ft 418 kts 333°
2026-04-28 13:47 34.21684 28.00535 33979 ft 418 kts 333°
2026-04-28 13:47 34.26948 27.97548 33975 ft 417 kts 333°
2026-04-28 13:48 34.32191 27.94563 33981 ft 417 kts 333°
2026-04-28 13:48 34.37454 27.91559 33977 ft 417 kts 333°
2026-04-28 13:49 34.42693 27.88564 33977 ft 417 kts 333°
2026-04-28 13:49 34.47936 27.85562 33976 ft 417 kts 333°
2026-04-28 13:50 34.53200 27.82542 33977 ft 418 kts 333°
2026-04-28 13:50 34.58446 27.79529 33975 ft 418 kts 333°
2026-04-28 13:51 34.63696 27.76509 33976 ft 418 kts 333°
2026-04-28 13:51 34.68932 27.73493 33975 ft 417 kts 333°
2026-04-28 13:52 34.74167 27.70474 33977 ft 417 kts 333°
2026-04-28 13:52 34.79413 27.67444 33977 ft 418 kts 333°
2026-04-28 13:53 34.84680 27.64399 33977 ft 417 kts 333°
2026-04-28 13:53 34.89923 27.61362 33987 ft 418 kts 333°
2026-04-28 13:54 34.95131 27.58340 33987 ft 417 kts 333°
2026-04-28 13:54 35.00393 27.55283 33982 ft 417 kts 333°
2026-04-28 13:55 35.05607 27.52251 33982 ft 418 kts 333°
2026-04-28 13:55 35.10849 27.49199 33978 ft 417 kts 333°
2026-04-28 13:56 35.16091 27.46158 33978 ft 417 kts 333°
2026-04-28 13:56 35.21336 27.43104 33980 ft 417 kts 333°
2026-04-28 13:57 35.26561 27.40052 33980 ft 417 kts 333°
2026-04-28 13:57 35.31788 27.36992 33979 ft 417 kts 333°
2026-04-28 13:58 35.37033 27.33911 33976 ft 416 kts 332°
2026-04-28 13:58 35.42238 27.30829 33969 ft 417 kts 332°
2026-04-28 13:59 35.47474 27.27727 33959 ft 417 kts 332°
2026-04-28 13:59 35.52709 27.24634 33965 ft 417 kts 332°
2026-04-28 14:00 35.57898 27.21567 33961 ft 416 kts 332°
2026-04-28 14:00 35.63106 27.18488 33964 ft 416 kts 332°
2026-04-28 14:01 35.68319 27.15403 33962 ft 416 kts 332°
2026-04-28 14:01 35.73552 27.12302 33968 ft 416 kts 332°
2026-04-28 14:02 35.78772 27.09204 33976 ft 416 kts 332°
2026-04-28 14:02 35.83962 27.06118 33980 ft 416 kts 332°
2026-04-28 14:03 35.89191 27.03003 33973 ft 415 kts 332°
2026-04-28 14:03 35.94373 26.99913 33978 ft 414 kts 332°
2026-04-28 14:04 35.99566 26.96813 33985 ft 416 kts 332°
2026-04-28 14:04 36.04767 26.93706 33980 ft 416 kts 332°
2026-04-28 14:05 36.09967 26.90596 33986 ft 415 kts 332°
2026-04-28 14:05 36.15138 26.87511 33984 ft 414 kts 332°
2026-04-28 14:06 36.20328 26.84407 33977 ft 414 kts 332°
2026-04-28 14:06 36.25483 26.81313 33980 ft 413 kts 332°
2026-04-28 14:07 36.30685 26.78180 33983 ft 415 kts 332°
2026-04-28 14:07 36.35862 26.75058 33980 ft 414 kts 332°
2026-04-28 14:08 36.41015 26.71944 33978 ft 415 kts 332°
2026-04-28 14:08 36.46189 26.68813 33978 ft 413 kts 332°
2026-04-28 14:09 36.51375 26.65672 33977 ft 413 kts 332°
2026-04-28 14:09 36.56505 26.62559 33974 ft 413 kts 332°
2026-04-28 14:10 36.61697 26.59404 33974 ft 413 kts 332°
2026-04-28 14:10 36.66848 26.56266 33979 ft 412 kts 332°
2026-04-28 14:11 36.71985 26.53134 33982 ft 412 kts 332°
2026-04-28 14:11 36.77128 26.49995 33985 ft 412 kts 332°
2026-04-28 14:12 36.82256 26.46860 33985 ft 412 kts 332°
2026-04-28 14:12 36.87429 26.43691 33983 ft 412 kts 332°
2026-04-28 14:13 36.92558 26.40545 33988 ft 412 kts 332°
2026-04-28 14:13 36.97697 26.37388 33986 ft 411 kts 332°
2026-04-28 14:14 37.02833 26.34227 33990 ft 411 kts 332°
2026-04-28 14:14 37.07953 26.31044 33992 ft 411 kts 332°
2026-04-28 14:15 37.13080 26.27872 33997 ft 411 kts 332°
2026-04-28 14:15 37.18201 26.24717 33992 ft 411 kts 332°
2026-04-28 14:16 37.23313 26.21557 33996 ft 411 kts 332°
2026-04-28 14:16 37.28442 26.18380 34006 ft 410 kts 332°
2026-04-28 14:17 37.33544 26.15215 33999 ft 409 kts 332°
2026-04-28 14:17 37.38662 26.12034 34001 ft 409 kts 332°
2026-04-28 14:18 37.43773 26.08852 34009 ft 409 kts 333°
2026-04-28 14:18 37.48872 26.05670 34008 ft 409 kts 333°
2026-04-28 14:19 37.53977 26.02484 34004 ft 409 kts 333°
2026-04-28 14:19 37.59048 25.99310 34010 ft 408 kts 333°
2026-04-28 14:20 37.64114 25.96137 34006 ft 408 kts 333°
2026-04-28 14:20 37.69231 25.92925 34021 ft 408 kts 333°
2026-04-28 14:21 37.74278 25.89755 34025 ft 407 kts 333°
2026-04-28 14:21 37.79329 25.86576 34037 ft 407 kts 333°
2026-04-28 14:22 37.84392 25.83384 34026 ft 407 kts 333°
2026-04-28 14:22 37.89488 25.80169 34030 ft 407 kts 333°
2026-04-28 14:23 37.94574 25.76951 34042 ft 407 kts 333°
2026-04-28 14:23 37.99617 25.73758 34046 ft 407 kts 333°
2026-04-28 14:24 38.04682 25.70546 34045 ft 407 kts 333°
2026-04-28 14:24 38.09745 25.67329 34041 ft 406 kts 333°
2026-04-28 14:25 38.14791 25.64132 34044 ft 406 kts 334°
2026-04-28 14:25 38.19859 25.60915 34045 ft 407 kts 334°
2026-04-28 14:26 38.24912 25.57698 34044 ft 407 kts 333°
2026-04-28 14:26 38.29975 25.54464 34049 ft 406 kts 333°
2026-04-28 14:27 38.35018 25.51237 34048 ft 406 kts 333°
2026-04-28 14:27 38.40036 25.48020 34048 ft 406 kts 334°
2026-04-28 14:28 38.45085 25.44777 34050 ft 406 kts 334°
2026-04-28 14:28 38.50138 25.41526 34052 ft 406 kts 334°
2026-04-28 14:29 38.55184 25.38275 34048 ft 406 kts 334°
2026-04-28 14:29 38.60191 25.35044 34053 ft 406 kts 334°
2026-04-28 14:30 38.65214 25.31773 34054 ft 405 kts 333°
2026-04-28 14:30 38.70240 25.28499 34057 ft 405 kts 333°
2026-04-28 14:31 38.75265 25.25233 34056 ft 405 kts 333°
2026-04-28 14:31 38.80302 25.21958 34057 ft 405 kts 333°
2026-04-28 14:32 38.85327 25.18687 34057 ft 405 kts 333°
2026-04-28 14:32 38.90359 25.15408 34057 ft 405 kts 333°
2026-04-28 14:33 38.95383 25.12129 34063 ft 405 kts 333°
2026-04-28 14:33 39.00415 25.08841 34064 ft 405 kts 333°
2026-04-28 14:34 39.07922 25.03927 34069 ft 405 kts 333°
2026-04-28 14:35 39.12915 25.00659 34073 ft 404 kts 333°
2026-04-28 14:35 39.17950 24.97367 34066 ft 404 kts 333°
2026-04-28 14:36 39.22947 24.94085 34077 ft 404 kts 333°
2026-04-28 14:36 39.27936 24.90799 34080 ft 404 kts 333°
2026-04-28 14:37 39.32922 24.87505 34086 ft 404 kts 333°
2026-04-28 14:37 39.37931 24.84192 34073 ft 404 kts 333°
2026-04-28 14:38 39.42922 24.80887 34069 ft 404 kts 333°
2026-04-28 14:38 39.47911 24.77575 34069 ft 404 kts 333°
2026-04-28 14:39 39.52902 24.74258 34069 ft 404 kts 333°
2026-04-28 14:39 39.57910 24.70923 34067 ft 404 kts 333°
2026-04-28 14:40 39.62909 24.67588 34072 ft 404 kts 333°
2026-04-28 14:40 39.67887 24.64263 34067 ft 404 kts 333°
2026-04-28 14:41 39.72885 24.60919 34067 ft 403 kts 333°
2026-04-28 14:41 39.77846 24.57594 34072 ft 403 kts 333°
2026-04-28 14:42 39.82826 24.54252 34069 ft 404 kts 333°
2026-04-28 14:42 39.87824 24.50891 34067 ft 403 kts 333°
2026-04-28 14:43 39.92796 24.47541 34067 ft 403 kts 333°
2026-04-28 14:43 39.97755 24.44195 34069 ft 403 kts 333°
2026-04-28 14:44 40.02731 24.40833 34070 ft 403 kts 333°
2026-04-28 14:44 40.07718 24.37458 34064 ft 403 kts 333°
2026-04-28 14:45 40.12693 24.34090 34067 ft 403 kts 332°
2026-04-28 14:45 40.17664 24.30704 34066 ft 403 kts 332°
2026-04-28 14:46 40.22613 24.27331 34064 ft 403 kts 332°
2026-04-28 14:46 40.27603 24.23928 34069 ft 403 kts 332°
2026-04-28 14:47 40.32549 24.20552 34067 ft 403 kts 332°
2026-04-28 14:47 40.37567 24.17119 34066 ft 403 kts 332°
2026-04-28 14:48 40.42556 24.13701 34061 ft 403 kts 332°
2026-04-28 14:48 40.47524 24.10293 34061 ft 403 kts 332°
2026-04-28 14:49 40.52535 24.06852 34060 ft 403 kts 332°
2026-04-28 14:49 40.57545 24.03403 34060 ft 403 kts 332°
2026-04-28 14:50 40.62535 23.99962 34056 ft 403 kts 332°
2026-04-28 14:50 40.67525 23.96515 34057 ft 403 kts 332°
2026-04-28 14:51 40.72498 23.93075 34057 ft 403 kts 332°
2026-04-28 14:51 40.77447 23.89646 34055 ft 403 kts 332°
2026-04-28 14:52 40.82413 23.86198 34050 ft 403 kts 332°
2026-04-28 14:52 40.87352 23.82763 34055 ft 403 kts 332°
2026-04-28 14:53 40.92350 23.79283 34049 ft 403 kts 332°
2026-04-28 14:53 40.97276 23.75844 34052 ft 402 kts 332°
2026-04-28 14:54 41.02250 23.72367 34047 ft 402 kts 331°
2026-04-28 14:54 41.07170 23.68922 34055 ft 402 kts 331°
2026-04-28 14:55 41.12130 23.65447 34067 ft 402 kts 332°
2026-04-28 14:55 41.17087 23.61981 34066 ft 402 kts 331°
2026-04-28 14:56 41.22008 23.58521 34064 ft 402 kts 331°
2026-04-28 14:56 41.26947 23.55036 34069 ft 401 kts 331°
2026-04-28 14:57 41.31908 23.51528 34067 ft 402 kts 331°
2026-04-28 14:57 41.37016 23.48471 34070 ft 402 kts 338°
2026-04-28 14:58 41.42368 23.46379 34068 ft 403 kts 346°
2026-04-28 14:58 41.47956 23.45274 34059 ft 406 kts 353°
2026-04-28 14:59 41.53635 23.44914 33895 ft 408 kts 355°
2026-04-28 14:59 41.56433 23.44775 33633 ft 406 kts 355°
2026-04-28 14:59 41.59259 23.44636 33361 ft 403 kts 355°
2026-04-28 14:59 41.62054 23.44498 33090 ft 401 kts 355°
2026-04-28 15:00 41.64843 23.44360 32825 ft 399 kts 355°
2026-04-28 15:00 41.67599 23.44221 32500 ft 399 kts 355°
2026-04-28 15:00 41.70377 23.44079 32044 ft 400 kts 355°
2026-04-28 15:00 41.73150 23.43938 31472 ft 401 kts 355°
2026-04-28 15:01 41.75932 23.43796 30834 ft 401 kts 355°
2026-04-28 15:01 41.78693 23.43656 30159 ft 401 kts 355°
2026-04-28 15:01 41.81473 23.43516 29444 ft 401 kts 355°
2026-04-28 15:01 41.84269 23.43375 28685 ft 402 kts 355°
2026-04-28 15:02 41.87066 23.43233 27922 ft 403 kts 355°
2026-04-28 15:02 41.89862 23.43092 27110 ft 405 kts 355°
2026-04-28 15:02 41.92677 23.42949 26279 ft 407 kts 355°
2026-04-28 15:02 41.95478 23.42807 25527 ft 406 kts 355°
2026-04-28 15:03 41.98264 23.42666 24981 ft 401 kts 355°
2026-04-28 15:03 42.01067 23.42525 24399 ft 397 kts 355°
2026-04-28 15:03 42.03780 23.42387 23837 ft 393 kts 355°
2026-04-28 15:03 42.06493 23.42248 23274 ft 390 kts 355°
2026-04-28 15:04 42.09178 23.42109 22721 ft 388 kts 355°
2026-04-28 15:04 42.11974 23.41961 22136 ft 405 kts 355°
2026-04-28 15:04 42.14786 23.41817 21549 ft 402 kts 355°
2026-04-28 15:04 42.17583 23.41674 20965 ft 398 kts 355°
2026-04-28 15:05 42.20299 23.41537 20366 ft 388 kts 355°
2026-04-28 15:05 42.22955 23.41404 19822 ft 377 kts 355°
2026-04-28 15:05 42.25550 23.41270 19279 ft 369 kts 355°
2026-04-28 15:05 42.28072 23.41297 18737 ft 365 kts
2026-04-28 15:06 42.30587 23.41712 18195 ft 361 kts
2026-04-28 15:06 42.33009 23.42483 17662 ft 359 kts 13°
2026-04-28 15:06 42.35403 23.43424 17133 ft 358 kts 13°
2026-04-28 15:06 42.37772 23.44386 16616 ft 356 kts 14°
2026-04-28 15:07 42.40136 23.45351 16094 ft 355 kts 14°
2026-04-28 15:07 42.42504 23.46314 15563 ft 353 kts 14°
2026-04-28 15:07 42.44852 23.47266 15051 ft 351 kts 14°
2026-04-28 15:07 42.47163 23.48203 14528 ft 350 kts 14°
2026-04-28 15:08 42.49481 23.49144 14016 ft 347 kts 14°
2026-04-28 15:08 42.51765 23.50072 13796 ft 333 kts 14°
2026-04-28 15:08 42.53911 23.50950 13636 ft 319 kts 14°
2026-04-28 15:08 42.56004 23.51804 13466 ft 305 kts 13°
2026-04-28 15:09 42.57975 23.52697 13334 ft 296 kts 23°
2026-04-28 15:09 42.59538 23.54481 13156 ft 295 kts 53°
2026-04-28 15:09 42.60301 23.56986 13067 ft 289 kts 79°
2026-04-28 15:09 42.60342 23.58796 13022 ft 283 kts 92°
2026-04-28 15:10 42.60091 23.62220 12942 ft 267 kts 94°
2026-04-28 15:10 42.59898 23.64688 12897 ft 258 kts 93°
2026-04-28 15:10 42.59728 23.67080 12642 ft 258 kts 92°
2026-04-28 15:10 42.59569 23.69543 12127 ft 265 kts 92°
2026-04-28 15:11 42.59415 23.72024 11782 ft 266 kts 92°
2026-04-28 15:11 42.59259 23.74523 11435 ft 265 kts 92°
2026-04-28 15:11 42.59106 23.76969 11118 ft 263 kts 92°
2026-04-28 15:11 42.58950 23.79451 10820 ft 261 kts 92°
2026-04-28 15:12 42.58796 23.81869 10514 ft 260 kts 92°
2026-04-28 15:12 42.58659 23.84304 10192 ft 258 kts 86°
2026-04-28 15:12 42.59096 23.86571 9863 ft 245 kts 49°
2026-04-28 15:12 42.60377 23.87910 9621 ft 227 kts 12°
2026-04-28 15:13 42.61891 23.88158 9305 ft 221 kts 356°
2026-04-28 15:13 42.63457 23.88146 8886 ft 226 kts 358°
2026-04-28 15:13 42.65017 23.87992 8520 ft 224 kts 339°
2026-04-28 15:13 42.66286 23.86895 8221 ft 219 kts 308°
2026-04-28 15:14 42.66925 23.85040 7909 ft 220 kts 284°
2026-04-28 15:14 42.67160 23.82997 7545 ft 222 kts 279°
2026-04-28 15:14 42.67336 23.80903 7173 ft 223 kts 278°
2026-04-28 15:14 42.67483 23.78801 6827 ft 224 kts 277°
2026-04-28 15:15 42.67614 23.76698 6488 ft 224 kts 276°
2026-04-28 15:15 42.67695 23.75313 6317 ft 221 kts 276°
2026-04-28 15:15 42.67847 23.72593 6106 ft 210 kts 277°
2026-04-28 15:15 42.67954 23.70658 5941 ft 203 kts 277°
2026-04-28 15:16 42.68060 23.68748 5687 ft 195 kts 277°
2026-04-28 15:16 42.68160 23.66957 5277 ft 190 kts 277°
2026-04-28 15:16 42.68262 23.65178 4818 ft 188 kts 277°
2026-04-28 15:16 42.68361 23.63449 4471 ft 179 kts 277°
2026-04-28 15:17 42.68451 23.61838 4242 ft 164 kts 278°
2026-04-28 15:17 42.68536 23.60356 4011 ft 149 kts 278°
2026-04-28 15:17 42.68613 23.58997 3794 ft 136 kts 278°
2026-04-28 15:17 42.68689 23.57723 3640 ft 136 kts 278°
2026-04-28 15:18 42.68766 23.56430 3481 ft 136 kts 278°
2026-04-28 15:18 42.68841 23.55159 3316 ft 136 kts 279°
2026-04-28 15:18 42.68917 23.53875 3147 ft 136 kts 278°
2026-04-28 15:18 42.68993 23.52585 2975 ft 135 kts 278°
2026-04-28 15:19 42.69068 23.51314 2802 ft 134 kts 278°
2026-04-28 15:19 42.69142 23.50068 2625 ft 133 kts 278°
2026-04-28 15:19 42.69217 23.48804 2455 ft 133 kts 278°
2026-04-28 15:19 42.69288 23.47563 2288 ft 131 kts 278°
2026-04-28 15:20 42.69361 23.46336 2125 ft 130 kts 279°
2026-04-28 15:20 42.69437 23.45115 1929 ft 132 kts 279°
2026-04-28 15:20 42.69510 23.43896 1781 ft 127 kts 280°
2026-04-28 15:20 42.69591 23.42603 2076 ft 154 kts 279°
2026-04-28 15:21 42.69683 23.41061 2705 ft 171 kts 278°
2026-04-28 15:21 42.69789 23.39368 3257 ft 196 kts 277°
2026-04-28 15:21 42.69900 23.37467 3479 ft 200 kts 277°
2026-04-28 15:21 42.70150 23.35686 3469 ft 180 kts 292°
2026-04-28 15:22 42.70464 23.34150 3508 ft 161 kts 270°
2026-04-28 15:22 42.70032 23.32779 3587 ft 175 kts 224°
2026-04-28 15:22 42.68920 23.31818 3685 ft 200 kts 207°
2026-04-28 15:22 42.67570 23.31217 3658 ft 217 kts 181°
2026-04-28 15:23 42.66095 23.31887 3652 ft 233 kts 140°
2026-04-28 15:23 42.65232 23.33666 3511 ft 226 kts 102°
2026-04-28 15:23 42.64915 23.35778 3607 ft 231 kts 99°
2026-04-28 15:23 42.64575 23.37928 3627 ft 233 kts 102°
2026-04-28 15:24 42.64149 23.40027 3635 ft 233 kts 105°
2026-04-28 15:24 42.63646 23.42133 3639 ft 234 kts 107°
2026-04-28 15:24 42.63105 23.44226 3645 ft 234 kts 108°
2026-04-28 15:24 42.62564 23.46290 3639 ft 232 kts 104°
2026-04-28 15:25 42.62207 23.48409 3645 ft 231 kts 97°
2026-04-28 15:25 42.61985 23.50553 3639 ft 229 kts 89°
2026-04-28 15:25 42.62394 23.52576 3600 ft 220 kts 48°
2026-04-28 15:25 42.63604 23.53752 3634 ft 215 kts 22°
2026-04-28 15:26 42.64983 23.54513 3377 ft 216 kts 21°
2026-04-28 15:26 42.66386 23.55325 3241 ft 217 kts 23°
2026-04-28 15:26 42.67759 23.55983 3209 ft 202 kts
2026-04-28 15:26 42.69023 23.55581 3300 ft 178 kts 330°
2026-04-28 15:27 42.69946 23.54584 3241 ft 163 kts 318°
2026-04-28 15:27 42.70469 23.53344 3189 ft 145 kts 276°
2026-04-28 15:27 42.70118 23.52123 3169 ft 144 kts 220°
2026-04-28 15:27 42.69379 23.51222 3090 ft 145 kts 245°
2026-04-28 15:28 42.69174 23.49906 2723 ft 144 kts 272°
2026-04-28 15:28 42.69230 23.48579 2462 ft 138 kts 278°
2026-04-28 15:28 42.69311 23.47279 2236 ft 139 kts 276°
2026-04-28 15:28 42.69377 23.45998 2057 ft 136 kts 277°
2026-04-28 15:29 42.69463 23.44690 1902 ft 138 kts 278°
2026-04-28 15:29 42.69541 23.43407 1769 ft 133 kts 277°
2026-04-28 15:29 42.69614 23.42274 1756 ft 99 kts 278°
2026-04-28 15:29 42.69661 23.41572 1758 ft 49 kts 274°
2026-04-28 15:30 42.69679 23.41152 1759 ft 46 kts 270°
2026-04-28 15:30 42.69641 23.40799 1762 ft 25 kts 246°
2026-04-28 15:30 42.69533 23.40703 1762 ft 20 kts 146°
2026-04-28 15:30 42.69510 23.40854 1762 ft 17 kts 94°
2026-04-28 15:31 42.69497 23.41053 1762 ft 21 kts 97°
2026-04-28 15:31 42.69441 23.41205 1762 ft 16 kts 180°
2026-04-28 15:31 42.69329 23.41180 1762 ft 16 kts 193°
2026-04-28 15:31 42.69214 23.41145 1765 ft 16 kts 189°
2026-04-28 15:32 42.69146 23.41125 1767 ft 7 kts 205°
2026-04-28 15:32 42.69120 23.41077 1768 ft 11 kts 246°
2026-04-28 15:32 42.69083 23.40933 1771 ft 17 kts 252°
2026-04-28 15:32 42.69035 23.40813 1772 ft 11 kts 160°
2026-04-28 15:33 42.69002 23.40835 1772 ft 4 kts 159°
2026-04-28 15:33 42.68968 23.40848 1773 ft 0 kts 163°